WAT5643 KAUS-KATL

Flight info

Callsign WAT5643
Flight time 1h 49m
Altitude 35000
Route ILEXY4 ZENZI LFK AEX MERDN ORRKK HOBTT3
Aircraft A21N/M-SDE3FGHIJ5RWY/LB1

Departure

Time 2026-05-06 11:44
Airport Austin Bergstrom International Airport (KAUS)

Arrival

Time 2026-05-06 13:34
Airport Hartsfield Jackson Atlanta International Airport (KATL)
Time Latitude Longitude Altitude Speed Heading
2026-05-06 11:30 30.20172 -97.66363 498 ft 0 kts 359°
2026-05-06 11:34 30.20166 -97.66363 498 ft 2 kts 359°
2026-05-06 11:35 30.20153 -97.66363 498 ft 2 kts 359°
2026-05-06 11:35 30.20139 -97.66362 498 ft 2 kts 359°
2026-05-06 11:35 30.20125 -97.66362 497 ft 1 kts 359°
2026-05-06 11:35 30.20114 -97.66362 497 ft 3 kts 345°
2026-05-06 11:36 30.20100 -97.66351 497 ft 2 kts 306°
2026-05-06 11:36 30.20094 -97.66335 497 ft 1 kts 274°
2026-05-06 11:36 30.20094 -97.66328 497 ft 1 kts 264°
2026-05-06 11:36 30.20094 -97.66324 497 ft 0 kts 268°
2026-05-06 11:39 30.20094 -97.66327 497 ft 1 kts 268°
2026-05-06 11:40 30.20093 -97.66350 497 ft 5 kts 265°
2026-05-06 11:40 30.20068 -97.66391 496 ft 8 kts 196°
2026-05-06 11:40 30.20006 -97.66391 496 ft 9 kts 179°
2026-05-06 11:40 30.19938 -97.66386 495 ft 11 kts 160°
2026-05-06 11:41 30.19913 -97.66309 493 ft 13 kts 88°
2026-05-06 11:41 30.19915 -97.66212 493 ft 13 kts 88°
2026-05-06 11:41 30.19918 -97.66106 491 ft 15 kts 88°
2026-05-06 11:41 30.19938 -97.65997 491 ft 14 kts 30°
2026-05-06 11:42 30.20037 -97.65994 492 ft 14 kts 360°
2026-05-06 11:42 30.20130 -97.65995 492 ft 13 kts 359°
2026-05-06 11:42 30.20223 -97.65997 492 ft 13 kts 359°
2026-05-06 11:42 30.20315 -97.66000 492 ft 12 kts
2026-05-06 11:43 30.20366 -97.65945 492 ft 11 kts 79°
2026-05-06 11:43 30.20367 -97.65860 492 ft 11 kts 90°
2026-05-06 11:43 30.20346 -97.65792 491 ft 10 kts 165°
2026-05-06 11:44 30.19674 -97.65771 485 ft 114 kts 178°
2026-05-06 11:44 30.18697 -97.65743 484 ft 171 kts 178°
2026-05-06 11:44 30.17549 -97.65706 869 ft 184 kts 178°
2026-05-06 11:44 30.16390 -97.65667 1527 ft 184 kts 179°
2026-05-06 11:45 30.15273 -97.65620 2362 ft 176 kts 178°
2026-05-06 11:45 30.14142 -97.65529 2870 ft 184 kts 170°
2026-05-06 11:45 30.13060 -97.64878 3221 ft 205 kts 137°
2026-05-06 11:45 30.12391 -97.63497 3581 ft 228 kts 106°
2026-05-06 11:46 30.12403 -97.61755 3880 ft 255 kts 74°
2026-05-06 11:46 30.13163 -97.60072 4332 ft 272 kts 58°
2026-05-06 11:46 30.14020 -97.58335 4949 ft 279 kts 65°
2026-05-06 11:46 30.14752 -97.56531 5708 ft 280 kts 66°
2026-05-06 11:47 30.15487 -97.54669 6478 ft 280 kts 66°
2026-05-06 11:47 30.16205 -97.52888 7118 ft 284 kts 66°
2026-05-06 11:47 30.16969 -97.51032 7642 ft 291 kts 65°
2026-05-06 11:47 30.17820 -97.48991 8224 ft 297 kts 65°
2026-05-06 11:48 30.18704 -97.46898 8832 ft 303 kts 65°
2026-05-06 11:48 30.19526 -97.44961 9353 ft 308 kts 65°
2026-05-06 11:48 30.20353 -97.43019 9846 ft 314 kts 65°
2026-05-06 11:48 30.21215 -97.40993 10364 ft 320 kts 65°
2026-05-06 11:49 30.22095 -97.38923 10668 ft 333 kts 65°
2026-05-06 11:49 30.22996 -97.36801 10913 ft 347 kts 64°
2026-05-06 11:49 30.23960 -97.34538 11175 ft 361 kts 65°
2026-05-06 11:49 30.24948 -97.32218 11434 ft 374 kts 65°
2026-05-06 11:50 30.26302 -97.29037 12036 ft 382 kts 65°
2026-05-06 11:50 30.26987 -97.27426 12378 ft 384 kts 65°
2026-05-06 11:50 30.28085 -97.24842 12891 ft 389 kts 64°
2026-05-06 11:50 30.29270 -97.22053 13416 ft 394 kts 64°
2026-05-06 11:51 30.30339 -97.19533 13882 ft 399 kts 64°
2026-05-06 11:51 30.31415 -97.16888 14374 ft 403 kts 67°
2026-05-06 11:51 30.32405 -97.14152 14877 ft 407 kts 68°
2026-05-06 11:51 30.33347 -97.11449 15352 ft 411 kts 68°
2026-05-06 11:52 30.34285 -97.08750 15808 ft 415 kts 68°
2026-05-06 11:52 30.35257 -97.05969 16271 ft 419 kts 68°
2026-05-06 11:52 30.36230 -97.03209 16740 ft 423 kts 67°
2026-05-06 11:52 30.37220 -97.00413 17217 ft 426 kts 67°
2026-05-06 11:53 30.38234 -96.97564 17674 ft 430 kts 67°
2026-05-06 11:53 30.39237 -96.94750 18109 ft 435 kts 66°
2026-05-06 11:53 30.40271 -96.91851 18570 ft 438 kts 67°
2026-05-06 11:53 30.41314 -96.88928 19042 ft 441 kts 67°
2026-05-06 11:54 30.42349 -96.86015 19487 ft 444 kts 67°
2026-05-06 11:54 30.43398 -96.83068 19919 ft 448 kts 67°
2026-05-06 11:54 30.44445 -96.80120 20376 ft 451 kts 67°
2026-05-06 11:54 30.45503 -96.77142 20818 ft 454 kts 67°
2026-05-06 11:55 30.46566 -96.74148 21244 ft 457 kts 67°
2026-05-06 11:55 30.47635 -96.71130 21680 ft 460 kts 67°
2026-05-06 11:55 30.48714 -96.68081 22122 ft 463 kts 67°
2026-05-06 11:55 30.49796 -96.65022 22541 ft 466 kts 67°
2026-05-06 11:56 30.50887 -96.61932 22931 ft 470 kts 67°
2026-05-06 11:56 30.52349 -96.57787 23458 ft 474 kts 68°
2026-05-06 11:56 30.53079 -96.55717 23703 ft 476 kts 67°
2026-05-06 11:56 30.54188 -96.52568 24088 ft 479 kts 67°
2026-05-06 11:57 30.55286 -96.49453 24631 ft 477 kts 68°
2026-05-06 11:57 30.56407 -96.46268 25102 ft 478 kts 67°
2026-05-06 11:57 30.57494 -96.43173 25442 ft 481 kts 68°
2026-05-06 11:57 30.58610 -96.39997 25742 ft 485 kts 67°
2026-05-06 11:58 30.59745 -96.36761 26077 ft 488 kts 67°
2026-05-06 11:58 30.60877 -96.33527 26407 ft 491 kts 68°
2026-05-06 11:58 30.62130 -96.29951 26728 ft 495 kts 68°
2026-05-06 11:58 30.63267 -96.26697 26949 ft 499 kts 68°
2026-05-06 11:59 30.64424 -96.23386 27193 ft 503 kts 68°
2026-05-06 11:59 30.65598 -96.20026 27470 ft 506 kts 68°
2026-05-06 11:59 30.66777 -96.16647 27746 ft 509 kts 68°
2026-05-06 11:59 30.67953 -96.13269 28015 ft 512 kts 68°
2026-05-06 12:00 30.69138 -96.09862 28272 ft 514 kts 68°
2026-05-06 12:00 30.70306 -96.06503 28524 ft 517 kts 68°
2026-05-06 12:00 30.71495 -96.03085 28777 ft 520 kts 68°
2026-05-06 12:00 30.72767 -95.99419 29034 ft 522 kts 68°
2026-05-06 12:01 30.74013 -95.95822 29284 ft 525 kts 68°
2026-05-06 12:01 30.75224 -95.92320 29568 ft 527 kts 68°
2026-05-06 12:01 30.76450 -95.88779 29869 ft 528 kts 68°
2026-05-06 12:01 30.77669 -95.85250 30132 ft 530 kts 68°
2026-05-06 12:02 30.78870 -95.81769 30443 ft 530 kts 68°
2026-05-06 12:02 30.80080 -95.78262 30793 ft 529 kts 67°
2026-05-06 12:02 30.81306 -95.74698 31142 ft 528 kts 67°
2026-05-06 12:02 30.82506 -95.71211 31472 ft 527 kts 67°
2026-05-06 12:03 30.83716 -95.67691 31789 ft 527 kts 67°
2026-05-06 12:03 30.84901 -95.64243 32087 ft 527 kts 67°
2026-05-06 12:03 30.86097 -95.60758 32362 ft 527 kts 67°
2026-05-06 12:03 30.87311 -95.57211 32644 ft 527 kts 66°
2026-05-06 12:04 30.88492 -95.53763 32911 ft 527 kts 66°
2026-05-06 12:04 30.89717 -95.50185 33195 ft 527 kts 66°
2026-05-06 12:04 30.90914 -95.46687 33465 ft 527 kts 66°
2026-05-06 12:04 30.92095 -95.43224 33710 ft 528 kts 66°
2026-05-06 12:05 30.93307 -95.39671 33954 ft 529 kts 66°
2026-05-06 12:05 30.94512 -95.36131 34186 ft 529 kts 66°
2026-05-06 12:05 30.95718 -95.32594 34393 ft 530 kts 67°
2026-05-06 12:05 30.96903 -95.29104 34583 ft 530 kts 67°
2026-05-06 12:06 30.98115 -95.25542 34769 ft 531 kts 67°
2026-05-06 12:06 30.99310 -95.22021 34878 ft 533 kts 67°
2026-05-06 12:06 31.01710 -95.14931 34878 ft 534 kts 67°
2026-05-06 12:07 31.04116 -95.07806 34879 ft 533 kts 67°
2026-05-06 12:07 31.06532 -95.00642 34877 ft 533 kts 67°
2026-05-06 12:08 31.08900 -94.93604 34878 ft 533 kts 66°
2026-05-06 12:08 31.11313 -94.86423 34880 ft 533 kts 66°
2026-05-06 12:09 31.13726 -94.79155 34882 ft 534 kts 68°
2026-05-06 12:09 31.15640 -94.71660 34884 ft 535 kts 77°
2026-05-06 12:10 31.16706 -94.63995 34886 ft 534 kts 86°
2026-05-06 12:10 31.17115 -94.56125 34887 ft 533 kts 89°
2026-05-06 12:11 31.17428 -94.48333 34883 ft 533 kts 89°
2026-05-06 12:11 31.17776 -94.40550 34886 ft 533 kts 89°
2026-05-06 12:12 31.18145 -94.32793 34879 ft 533 kts 89°
2026-05-06 12:12 31.18522 -94.24955 34885 ft 533 kts 89°
2026-05-06 12:13 31.18883 -94.17305 34880 ft 533 kts 89°
2026-05-06 12:13 31.19245 -94.09568 34888 ft 533 kts 89°
2026-05-06 12:14 31.19606 -94.01726 34888 ft 533 kts 88°
2026-05-06 12:14 31.19967 -93.93792 34893 ft 533 kts 89°
2026-05-06 12:15 31.20334 -93.85583 34897 ft 532 kts 89°
2026-05-06 12:15 31.20677 -93.77840 34900 ft 532 kts 88°
2026-05-06 12:16 31.21013 -93.70152 34890 ft 533 kts 88°
2026-05-06 12:16 31.21347 -93.62418 34902 ft 532 kts 89°
2026-05-06 12:17 31.21689 -93.54336 34895 ft 532 kts 89°
2026-05-06 12:17 31.22063 -93.45339 34904 ft 532 kts 88°
2026-05-06 12:18 31.22436 -93.36311 34908 ft 532 kts 88°
2026-05-06 12:18 31.22805 -93.27226 34901 ft 532 kts 89°
2026-05-06 12:19 31.23162 -93.18150 34907 ft 532 kts 89°
2026-05-06 12:19 31.23514 -93.09107 34911 ft 532 kts 89°
2026-05-06 12:20 31.23861 -93.00083 34908 ft 532 kts 89°
2026-05-06 12:20 31.24202 -92.91015 34917 ft 531 kts 89°
2026-05-06 12:21 31.24486 -92.83295 34911 ft 532 kts 88°
2026-05-06 12:21 31.24766 -92.75614 34914 ft 532 kts 88°
2026-05-06 12:22 31.25042 -92.67980 34914 ft 531 kts 89°
2026-05-06 12:22 31.25310 -92.60339 34918 ft 531 kts 88°
2026-05-06 12:23 31.25909 -92.52621 34911 ft 532 kts 81°
2026-05-06 12:23 31.27367 -92.44810 34913 ft 530 kts 71°
2026-05-06 12:24 31.29609 -92.37315 34916 ft 529 kts 66°
2026-05-06 12:24 31.32059 -92.29919 34911 ft 529 kts 66°
2026-05-06 12:25 31.34483 -92.22492 34911 ft 529 kts 66°
2026-05-06 12:25 31.36873 -92.15031 34916 ft 529 kts 67°
2026-05-06 12:26 31.39209 -92.07681 34914 ft 530 kts 67°
2026-05-06 12:26 31.41542 -92.00317 34911 ft 529 kts 66°
2026-05-06 12:27 31.43843 -91.93045 34914 ft 529 kts 66°
2026-05-06 12:27 31.46159 -91.85709 34914 ft 529 kts 66°
2026-05-06 12:28 31.48421 -91.78520 34911 ft 529 kts 66°
2026-05-06 12:28 31.50717 -91.71222 34913 ft 529 kts 66°
2026-05-06 12:29 31.52975 -91.64017 34915 ft 529 kts 66°
2026-05-06 12:29 31.55240 -91.56771 34914 ft 529 kts 66°
2026-05-06 12:30 31.57471 -91.49618 34919 ft 528 kts 66°
2026-05-06 12:30 31.59727 -91.42384 34928 ft 529 kts 66°
2026-05-06 12:31 31.61957 -91.35198 34933 ft 528 kts 66°
2026-05-06 12:31 31.64185 -91.28015 34928 ft 528 kts 67°
2026-05-06 12:32 31.66412 -91.20817 34933 ft 529 kts 67°
2026-05-06 12:32 31.68648 -91.13567 34935 ft 529 kts 67°
2026-05-06 12:33 31.70882 -91.06305 34935 ft 529 kts 66°
2026-05-06 12:33 31.73088 -90.99123 34936 ft 529 kts 66°
2026-05-06 12:34 31.75297 -90.91914 34940 ft 529 kts 67°
2026-05-06 12:34 31.77481 -90.84773 34939 ft 528 kts 66°
2026-05-06 12:35 31.79667 -90.77602 34939 ft 528 kts 66°
2026-05-06 12:35 31.81852 -90.70422 34942 ft 527 kts 66°
2026-05-06 12:36 31.84021 -90.63284 34940 ft 528 kts 66°
2026-05-06 12:36 31.86202 -90.56075 34944 ft 527 kts 66°
2026-05-06 12:37 31.88367 -90.48914 34942 ft 527 kts 66°
2026-05-06 12:37 31.90533 -90.41736 34942 ft 527 kts 66°
2026-05-06 12:38 31.92705 -90.34508 34943 ft 526 kts 67°
2026-05-06 12:38 31.94843 -90.27386 34937 ft 526 kts 67°
2026-05-06 12:39 31.96987 -90.20216 34937 ft 526 kts 66°
2026-05-06 12:39 31.99120 -90.13073 34946 ft 526 kts 66°
2026-05-06 12:40 32.01242 -90.05958 34942 ft 526 kts 67°
2026-05-06 12:40 32.03372 -89.98792 34942 ft 526 kts 66°
2026-05-06 12:41 32.05528 -89.91510 34945 ft 525 kts 66°
2026-05-06 12:41 32.07642 -89.84374 34945 ft 525 kts 66°
2026-05-06 12:42 32.09745 -89.77247 34948 ft 525 kts 66°
2026-05-06 12:42 32.11868 -89.70040 34948 ft 525 kts 66°
2026-05-06 12:43 32.13965 -89.62897 34949 ft 525 kts 66°
2026-05-06 12:43 32.16065 -89.55723 34946 ft 524 kts 66°
2026-05-06 12:44 32.18160 -89.48560 34953 ft 524 kts 66°
2026-05-06 12:44 32.20234 -89.41447 34949 ft 524 kts 66°
2026-05-06 12:45 32.22319 -89.34294 34951 ft 524 kts 67°
2026-05-06 12:46 32.25462 -89.23448 34953 ft 524 kts 66°
2026-05-06 12:46 32.27537 -89.16280 34953 ft 524 kts 66°
2026-05-06 12:47 32.29594 -89.09152 34953 ft 523 kts 66°
2026-05-06 12:47 32.31671 -89.01933 34955 ft 523 kts 66°
2026-05-06 12:48 32.33720 -88.94801 34954 ft 523 kts 66°
2026-05-06 12:48 32.35782 -88.87605 34958 ft 523 kts 67°
2026-05-06 12:49 32.37785 -88.80380 34961 ft 525 kts 69°
2026-05-06 12:49 32.39358 -88.72880 34964 ft 526 kts 73°
2026-05-06 12:50 32.40754 -88.65459 34963 ft 525 kts 73°
2026-05-06 12:50 32.42132 -88.58163 34966 ft 526 kts 73°
2026-05-06 12:51 32.43596 -88.50460 34969 ft 525 kts 73°
2026-05-06 12:51 32.44967 -88.43295 34966 ft 526 kts 73°
2026-05-06 12:52 32.46395 -88.35799 34963 ft 525 kts 73°
2026-05-06 12:52 32.47815 -88.28316 34961 ft 524 kts 73°
2026-05-06 12:53 32.49232 -88.20830 34964 ft 525 kts 73°
2026-05-06 12:53 32.50648 -88.13321 34963 ft 525 kts 73°
2026-05-06 12:54 32.52091 -88.05636 34957 ft 525 kts 73°
2026-05-06 12:54 32.53498 -87.98131 34964 ft 525 kts 73°
2026-05-06 12:55 32.54919 -87.90530 34965 ft 524 kts 73°
2026-05-06 12:55 32.56340 -87.82985 34966 ft 525 kts 73°
2026-05-06 12:56 32.57721 -87.75619 34972 ft 524 kts 73°
2026-05-06 12:56 32.59103 -87.68230 34969 ft 524 kts 73°
2026-05-06 12:57 32.60480 -87.60826 34972 ft 524 kts 73°
2026-05-06 12:57 32.61954 -87.52890 34974 ft 524 kts 73°
2026-05-06 12:58 32.63553 -87.44247 34976 ft 524 kts 73°
2026-05-06 12:58 32.65126 -87.35692 34984 ft 524 kts 73°
2026-05-06 12:59 32.66607 -87.27611 34978 ft 523 kts 73°
2026-05-06 12:59 32.67958 -87.20223 34985 ft 523 kts 73°
2026-05-06 13:00 32.69303 -87.12827 34981 ft 523 kts 73°
2026-05-06 13:00 32.70651 -87.05405 34984 ft 523 kts 73°
2026-05-06 13:01 32.72010 -86.97884 34992 ft 523 kts 73°
2026-05-06 13:01 32.73361 -86.90386 35002 ft 523 kts 73°
2026-05-06 13:02 32.74693 -86.82966 34998 ft 523 kts 72°
2026-05-06 13:02 32.76027 -86.75507 35001 ft 522 kts 73°
2026-05-06 13:03 32.77350 -86.68076 34758 ft 524 kts 73°
2026-05-06 13:03 32.77995 -86.64430 34514 ft 521 kts 72°
2026-05-06 13:03 32.78664 -86.60650 34267 ft 519 kts 72°
2026-05-06 13:03 32.79313 -86.56976 34016 ft 515 kts 72°
2026-05-06 13:04 32.79951 -86.53371 33775 ft 514 kts 72°
2026-05-06 13:04 32.80601 -86.49700 33529 ft 513 kts 72°
2026-05-06 13:04 32.81244 -86.46072 33287 ft 514 kts 72°
2026-05-06 13:04 32.81879 -86.42451 33059 ft 515 kts 72°
2026-05-06 13:05 32.82523 -86.38778 32837 ft 515 kts 72°
2026-05-06 13:05 32.83163 -86.35120 32580 ft 515 kts 72°
2026-05-06 13:05 32.83808 -86.31432 32240 ft 515 kts 73°
2026-05-06 13:05 32.84441 -86.27812 31813 ft 516 kts 73°
2026-05-06 13:06 32.85080 -86.24147 31291 ft 516 kts 73°
2026-05-06 13:06 32.85728 -86.20416 30732 ft 517 kts 73°
2026-05-06 13:06 32.86354 -86.16794 30188 ft 516 kts 73°
2026-05-06 13:06 32.86982 -86.13161 29672 ft 515 kts 73°
2026-05-06 13:07 32.87621 -86.09467 29122 ft 515 kts 73°
2026-05-06 13:07 32.88258 -86.05775 28571 ft 515 kts 73°
2026-05-06 13:07 32.88884 -86.02138 28102 ft 513 kts 73°
2026-05-06 13:07 32.89495 -85.98570 27737 ft 508 kts 73°
2026-05-06 13:08 32.90103 -85.95019 27359 ft 504 kts 73°
2026-05-06 13:08 32.90693 -85.91568 26982 ft 500 kts 73°
2026-05-06 13:08 32.91289 -85.88078 26590 ft 497 kts 73°
2026-05-06 13:08 32.91886 -85.84591 26204 ft 493 kts 73°
2026-05-06 13:09 32.92465 -85.81190 25823 ft 490 kts 74°
2026-05-06 13:09 32.93053 -85.77736 25428 ft 486 kts 74°
2026-05-06 13:09 32.93626 -85.74368 25044 ft 483 kts 74°
2026-05-06 13:09 32.94207 -85.70945 24653 ft 480 kts 74°
2026-05-06 13:10 32.94774 -85.67600 24268 ft 477 kts 74°
2026-05-06 13:10 32.95341 -85.64238 23886 ft 473 kts 74°
2026-05-06 13:10 32.95908 -85.60889 23500 ft 470 kts 75°
2026-05-06 13:10 32.96462 -85.57608 23121 ft 468 kts 75°
2026-05-06 13:11 32.97009 -85.54346 22734 ft 465 kts 75°
2026-05-06 13:11 32.97553 -85.51096 22358 ft 462 kts 75°
2026-05-06 13:11 32.98098 -85.47853 21980 ft 460 kts 75°
2026-05-06 13:11 32.98629 -85.44684 21601 ft 457 kts 75°
2026-05-06 13:12 32.99175 -85.41415 21209 ft 455 kts 75°
2026-05-06 13:12 32.99696 -85.38287 20832 ft 452 kts 75°
2026-05-06 13:12 33.00223 -85.35121 20452 ft 450 kts 75°
2026-05-06 13:12 33.00752 -85.31941 20067 ft 447 kts 76°
2026-05-06 13:13 33.01274 -85.28796 19688 ft 444 kts 76°
2026-05-06 13:13 33.01790 -85.25711 19306 ft 441 kts 75°
2026-05-06 13:13 33.02590 -85.22658 18888 ft 432 kts 61°
2026-05-06 13:13 33.03931 -85.19955 18488 ft 420 kts 46°
2026-05-06 13:14 33.05566 -85.17709 18116 ft 413 kts 40°
2026-05-06 13:14 33.07308 -85.15543 17721 ft 410 kts 39°
2026-05-06 13:14 33.09037 -85.13423 17327 ft 408 kts 40°
2026-05-06 13:14 33.10737 -85.11311 16944 ft 406 kts 40°
2026-05-06 13:15 33.12401 -85.09201 16558 ft 404 kts 41°
2026-05-06 13:15 33.14062 -85.07066 16171 ft 402 kts 42°
2026-05-06 13:15 33.15700 -85.04945 15792 ft 400 kts 42°
2026-05-06 13:15 33.17300 -85.02866 15413 ft 398 kts 43°
2026-05-06 13:16 33.18924 -85.00749 15032 ft 396 kts 43°
2026-05-06 13:16 33.20528 -84.98662 14647 ft 394 kts 43°
2026-05-06 13:16 33.22134 -84.96573 14264 ft 392 kts 44°
2026-05-06 13:16 33.23721 -84.94508 13890 ft 390 kts 44°
2026-05-06 13:17 33.25291 -84.92462 13521 ft 387 kts 44°
2026-05-06 13:17 33.26893 -84.90369 13136 ft 385 kts 44°
2026-05-06 13:17 33.28466 -84.88315 12761 ft 383 kts 44°
2026-05-06 13:17 33.30026 -84.86280 12386 ft 381 kts 44°
2026-05-06 13:18 33.31531 -84.84315 12067 ft 377 kts 43°
2026-05-06 13:18 33.33102 -84.82401 11964 ft 368 kts 41°
2026-05-06 13:18 33.34725 -84.80505 11965 ft 370 kts 40°
2026-05-06 13:18 33.36317 -84.78666 11964 ft 370 kts 40°
2026-05-06 13:19 33.37943 -84.76788 11963 ft 370 kts 40°
2026-05-06 13:19 33.39541 -84.74937 11966 ft 370 kts 40°
2026-05-06 13:19 33.41120 -84.73106 11966 ft 369 kts 40°
2026-05-06 13:19 33.42650 -84.71329 11965 ft 370 kts 40°
2026-05-06 13:20 33.44226 -84.69494 11966 ft 370 kts 40°
2026-05-06 13:20 33.45817 -84.67640 11962 ft 370 kts 40°
2026-05-06 13:20 33.47402 -84.65789 11965 ft 369 kts 40°
2026-05-06 13:20 33.49010 -84.63913 11962 ft 371 kts 40°
2026-05-06 13:21 33.50618 -84.62037 11962 ft 371 kts 40°
2026-05-06 13:21 33.52189 -84.60162 11959 ft 372 kts 44°
2026-05-06 13:21 33.53404 -84.57925 11936 ft 377 kts 66°
2026-05-06 13:21 33.53884 -84.55369 11956 ft 377 kts 87°
2026-05-06 13:22 33.53880 -84.52710 11967 ft 377 kts 93°
2026-05-06 13:22 33.53790 -84.49968 11968 ft 377 kts 93°
2026-05-06 13:22 33.53717 -84.47276 11716 ft 377 kts 92°
2026-05-06 13:22 33.53677 -84.44524 11357 ft 375 kts 91°
2026-05-06 13:23 33.53663 -84.41856 11003 ft 372 kts 91°
2026-05-06 13:23 33.53663 -84.39123 10628 ft 364 kts 91°
2026-05-06 13:23 33.53668 -84.36478 10295 ft 354 kts 91°
2026-05-06 13:23 33.53675 -84.33923 9973 ft 342 kts 91°
2026-05-06 13:24 33.53676 -84.31386 9639 ft 330 kts 92°
2026-05-06 13:24 33.53677 -84.28938 9313 ft 326 kts 91°
2026-05-06 13:24 33.53680 -84.26594 8995 ft 323 kts 91°
2026-05-06 13:24 33.53682 -84.24301 8687 ft 321 kts 91°
2026-05-06 13:25 33.53684 -84.21824 8340 ft 318 kts 91°
2026-05-06 13:25 33.53686 -84.19548 8023 ft 316 kts 91°
2026-05-06 13:25 33.53686 -84.17227 7639 ft 317 kts 91°
2026-05-06 13:25 33.53687 -84.14875 7215 ft 319 kts 91°
2026-05-06 13:26 33.53687 -84.12534 6861 ft 318 kts 90°
2026-05-06 13:26 33.53924 -84.10238 6499 ft 317 kts 72°
2026-05-06 13:26 33.54822 -84.08163 6144 ft 311 kts 48°
2026-05-06 13:26 33.56227 -84.06696 5810 ft 302 kts 25°
2026-05-06 13:27 33.57924 -84.05985 5480 ft 290 kts
2026-05-06 13:27 33.59660 -84.06044 5145 ft 277 kts 340°
2026-05-06 13:27 33.61155 -84.06892 4815 ft 265 kts 316°
2026-05-06 13:27 33.62158 -84.08331 4493 ft 253 kts 294°
2026-05-06 13:28 33.62763 -84.10003 4179 ft 250 kts 284°
2026-05-06 13:28 33.63055 -84.11567 3975 ft 243 kts 275°
2026-05-06 13:28 33.63186 -84.13660 3953 ft 243 kts 270°
2026-05-06 13:28 33.63229 -84.15774 3955 ft 243 kts 268°
2026-05-06 13:29 33.63234 -84.17726 3955 ft 244 kts 268°
2026-05-06 13:29 33.63229 -84.19506 3950 ft 239 kts 268°
2026-05-06 13:29 33.63222 -84.21247 3942 ft 224 kts 268°
2026-05-06 13:29 33.63217 -84.22819 3917 ft 212 kts 267°
2026-05-06 13:30 33.63211 -84.24367 3753 ft 207 kts 267°
2026-05-06 13:30 33.63206 -84.25864 3516 ft 204 kts 267°
2026-05-06 13:30 33.63202 -84.27377 3278 ft 198 kts 267°
2026-05-06 13:30 33.63200 -84.28816 3142 ft 186 kts 267°
2026-05-06 13:31 33.63198 -84.30169 2901 ft 181 kts 267°
2026-05-06 13:31 33.63195 -84.31507 2700 ft 173 kts 268°
2026-05-06 13:31 33.63193 -84.32767 2472 ft 166 kts 267°
2026-05-06 13:31 33.63191 -84.33973 2261 ft 158 kts 267°
2026-05-06 13:32 33.63189 -84.35117 2074 ft 153 kts 267°
2026-05-06 13:32 33.63189 -84.36166 1894 ft 145 kts 267°
2026-05-06 13:32 33.63187 -84.37190 1747 ft 143 kts 267°
2026-05-06 13:32 33.63186 -84.38221 1595 ft 142 kts 267°
2026-05-06 13:33 33.63186 -84.39231 1443 ft 142 kts 268°
2026-05-06 13:33 33.63185 -84.40305 1274 ft 141 kts 268°
2026-05-06 13:33 33.63184 -84.41329 1120 ft 140 kts 268°
2026-05-06 13:33 33.63181 -84.42325 992 ft 134 kts 267°
2026-05-06 13:34 33.63176 -84.43185 1005 ft 96 kts 272°
2026-05-06 13:34 33.63183 -84.43726 1011 ft 52 kts 270°
2026-05-06 13:34 33.63184 -84.43978 1014 ft 25 kts 276°
2026-05-06 13:34 33.63222 -84.44154 1017 ft 23 kts 296°
2026-05-06 13:35 33.63308 -84.44260 1019 ft 18 kts 356°
2026-05-06 13:35 33.63401 -84.44202 1018 ft 18 kts 22°
2026-05-06 13:35 33.63503 -84.44195 1020 ft 16 kts 356°
2026-05-06 13:35 33.63600 -84.44190 1020 ft 16 kts
2026-05-06 13:36 33.63663 -84.44123 1020 ft 16 kts 82°
2026-05-06 13:36 33.63663 -84.44031 1018 ft 17 kts 92°
2026-05-06 13:36 33.63658 -84.43874 1015 ft 19 kts 91°
2026-05-06 13:36 33.63663 -84.43716 1014 ft 19 kts 89°
2026-05-06 13:37 33.63663 -84.43574 1012 ft 20 kts 90°
2026-05-06 13:37 33.63663 -84.43429 1011 ft 20 kts 90°
2026-05-06 13:37 33.63663 -84.43283 1010 ft 20 kts 90°
2026-05-06 13:37 33.63665 -84.43132 1008 ft 21 kts 89°
2026-05-06 13:38 33.63663 -84.42988 1007 ft 12 kts 91°
2026-05-06 13:38 33.63663 -84.42976 1007 ft 0 kts 91°
2026-05-06 13:38 33.63663 -84.42975 1007 ft 0 kts 89°
2026-05-06 13:38 33.63663 -84.42954 1007 ft 4 kts 89°
2026-05-06 13:39 33.63663 -84.42915 1006 ft 6 kts 90°
2026-05-06 13:39 33.63663 -84.42859 1005 ft 8 kts 90°
2026-05-06 13:39 33.63664 -84.42786 1003 ft 11 kts 85°
2026-05-06 13:39 33.63714 -84.42735 1002 ft 12 kts 12°
2026-05-06 13:40 33.63814 -84.42734 1004 ft 9 kts
2026-05-06 13:40 33.63848 -84.42733 1004 ft 7 kts
2026-05-06 13:40 33.63900 -84.42733 1004 ft 8 kts
2026-05-06 13:40 33.63927 -84.42731 1004 ft 2 kts 23°
2026-05-06 13:41 33.63937 -84.42711 1004 ft 4 kts 72°
2026-05-06 13:41 33.63941 -84.42679 1004 ft 5 kts 85°
2026-05-06 13:41 33.63942 -84.42642 1003 ft 4 kts 89°
2026-05-06 13:41 33.63942 -84.42629 1003 ft 1 kts 90°
2026-05-06 13:42 33.63942 -84.42626 1003 ft 0 kts 90°